アトラス彗星

C/2020 F2 ( ATLAS )

English version
Home page
Updated on September 18, 2021

---------------------------------------------------------------------

・ プロフィール

発見日 2020年3月21日、22日
発見光度 19.3等、19.3等
発見者 Asteroid Terrestrial-Impact Last Alert System (ATLAS) search program, Pan-STARRS 1 telescope (Haleakala)

・ 写真集

・ 軌道要素

Epoch 2022 June 30.0 TT = JDT 2459760.5
T 2022 July 15.65359 TT                                 Rudenko
q   8.8173635            (2000.0)            P               Q
z  -0.0005830      Peri.   48.35187     -0.89903149     -0.34782429
 +/-0.0000008      Node   250.27251     -0.43594593     +0.76805860
e   1.0051401      Incl.  163.58488     +0.04115248     +0.53768416
From 483 observations 2019 May 27-2021 May 2, mean residual 0".5.

・ 星図

・ 光度変化

        m1 = -6.5 + 5 logΔ + 20.0 log r

---------------------------------------------------------------------

軌道要素はM.P.E.C. 2021-J28に掲載されたものです。
星図はステラナビゲータ Ver.10 (アストロアーツ) で作成したものです。
光度グラフはComet for Windowsで作成したものです。

---------------------------------------------------------------------

Copyright(C) Seiichi Yoshida (comet@aerith.net). All rights reserved.